This is the latest recevied weather packets stored in our database for station/object KG5WBN. If no packets are shown the sender has not sent any weather packets the latest 10 day(s).
| Time | Temp. | Humidity | Pressure | Rain* | Wind** | Luminosity | Snow |
|---|---|---|---|---|---|---|---|
| 1787772213 | 35.56° C | 42% | 1014.6 hPa | 0 mm | - | 359 W/m² | - |
| 1787771907 | 35° C | 42% | 1014.2 hPa | 0 mm | - | 358 W/m² | - |
| 1787771606 | 34.44° C | 42% | 1014.6 hPa | 0 mm | - | 358 W/m² | - |
| 1787771301 | 34.44° C | 42% | 1014.6 hPa | 0 mm | - | 358 W/m² | - |
| 1787770996 | 34.44° C | 42% | 1014.6 hPa | 0 mm | - | 358 W/m² | - |
| 1787770695 | 35° C | 42% | 1014.6 hPa | 0 mm | - | 358 W/m² | - |
| 1787770389 | 35° C | 42% | 1014.6 hPa | 0 mm | - | 362 W/m² | - |
| 1787770089 | 35° C | 42% | 1014.9 hPa | 0 mm | - | 362 W/m² | - |
| 1787769783 | 34.44° C | 42% | 1014.9 hPa | 0 mm | - | 359 W/m² | - |
| 1787769482 | 34.44° C | 42% | 1015.2 hPa | 0 mm | - | 359 W/m² | - |
| 1787769176 | 34.44° C | 42% | 1014.9 hPa | 0 mm | - | 360 W/m² | - |
| 1787768871 | 33.33° C | 43% | 1014.9 hPa | 0 mm | - | 361 W/m² | - |
| 1787768567 | 33.89° C | 43% | 1015.2 hPa | 0 mm | - | 353 W/m² | - |
| 1787768263 | 34.44° C | 42% | 1015.2 hPa | 0 mm | - | 356 W/m² | - |
| 1787767959 | 33.89° C | 43% | 1015.2 hPa | 0 mm | - | 356 W/m² | - |
| 1787767654 | 34.44° C | 42% | 1015.2 hPa | 0 mm | - | 353 W/m² | - |
| 1787767352 | 34.44° C | 42% | 1015.2 hPa | 0 mm | - | 351 W/m² | - |
| 1787767052 | 34.44° C | 42% | 1015.6 hPa | 0 mm | - | 347 W/m² | - |
| 1787766750 | 33.33° C | 43% | 1015.6 hPa | 0 mm | - | 340 W/m² | - |
| 1787766450 | 33.33° C | 43% | 1015.6 hPa | 0 mm | - | 294 W/m² | - |
| 1787766145 | 33.33° C | 43% | 1015.2 hPa | 0 mm | - | 336 W/m² | - |
| 1787765840 | 33.89° C | 43% | 1015.6 hPa | 0 mm | - | 332 W/m² | - |
| 1787765537 | 33.33° C | 43% | 1015.6 hPa | 0 mm | - | 331 W/m² | - |
| 1787765237 | 33.33° C | 44% | 1015.6 hPa | 0 mm | - | 343 W/m² | - |
| 1787764936 | 33.33° C | 44% | 1015.6 hPa | 0 mm | - | 343 W/m² | - |
* Rain latest hour (hover to see other rain measurements)
** Current wind speed in m/s (hover to see current wind gust speed)